SL-8 R/B

Satellite information

Favourite Embed

Satellite Type and Status

ROCKET BODYIN ORBIT

Key statistics

Satellite SL-8 R/B at a glance.

Uptime

15897

Days in orbit

Revolutions

≈ 13.7

Per day

Orbit

LEO

Low Earth Orbit

Inclination

65.8

Latest

Satellite identification and parameters

Extended collection of information and parameters for SL-8 R/B.

Object identification

Identified? True

Debris? False

Object name: SL-8 R/B

International designator: 1982-055B

Object number (NORAD): 13260

Object ID (CCSDS): 13260

Country: COMMONWEALTH OF INDEPENDENT STATES (CIS)

Current information (Y/N): Y

RCS size: LARGE

Orbital parameters

Period: 104.76 minutes

Inclination: 65.8309 deg

SMA: 7361.322 km

Apoapsis: 1010.178 km

Periapsis: 956.196 km

RAAN: 186.4267 deg

Eccentricy: 0.0036666

Argument of periapsis: 348.0237 deg

Mean anomaly: 108.5081 deg

Mean motion: 13.74576948 rev/day

Mean motion (dot): 0.00000034 rev/day2

B* drag term: 0.00012022 1/REarth

Two-line elements (TLE)

Creation date: Dec. 12, 2025, 7:16 a.m.

Reference frame: TEME

Reference center: EARTH

Epoch: Dec. 11, 2025, 10:28 p.m. UTC

TLE line 0: 0 SL-8 R/B

TLE line 1: 1 13260U 82055B 25345.93626087 .00000034 00000-0 12022-3 0 9999

TLE line 2: 2 13260 65.8309 186.4267 0036666 348.0237 108.5081 13.74576948185194

Live tracking on map

Real-time ground track for satellite SL-8 R/B.

In-orbit conjunctions

A list of the most updated potential collisions computed for object SL-8 R/B.

Target Orbit TCA Probability of collision Miss distance Type
FALCON 9 R/B MEO 2025-04-16 13:10:09 0.0002303518 404.0 (m) ROCKET BODY
NIMBUS 2 DEB SSO 2025-04-05 18:08:05 0.0006978844 77.0 (m) DEBRIS

Associated space launch

ASAT target satellite

SL-8 R/B was lifted into orbit during the mission ‘Kosmos-3M | DS-P1-M 16’, on board a Kosmos-3M space rocket.

The launch took place on June 6, 1982, 5:10 p.m. from 132/2.

For more information about the launch, click the button.

Launch to space Kosmos-3M | DS-P1-M 16
Kosmos-3M | DS-P1-M 16

Agency: N/A

Status: Launch Successful

Launch date: June 6, 1982, 5:10 p.m. UTC

Rocket: Kosmos-3M

Launch pad: 132/2

Location: Plesetsk Cosmodrome, Russian Federation

...

Latest news about this satellite

There are no fresh news available about this satellite. Check back as we update our databases every day.


Newsletter sign-up

Weekly statistics, charts and insights to help you stay on top of the space industry.